Saint Petersburg, FL

4:49 PM EST on February 06, 2016 (GMT -0500)
Whitted

Weather History for KSPG - December, 2012

Change the Weather History Date:

Monday, December 17, 2012

  Actual Average Record
Temperature  
Mean Temperature 74 °F -  
Max Temperature 79 °F 68 °F 83 °F (1956)
Min Temperature 68 °F 54 °F 38 °F (1968)
Cooling Degree Days 8    
Growing Degree Days 24 (Base 50)    
Moisture  
Dew Point 68 °F    
Average Humidity 85    
Maximum Humidity 96    
Minimum Humidity 68    
Precipitation  
Precipitation 0.00 in - - ()
Sea Level Pressure  
Sea Level Pressure 29.92 in    
Wind  
Wind Speed 6 mph (SSW)    
Max Wind Speed 15 mph    
Max Gust Speed 23 mph    
Visibility 10 miles    
Events      
Averages and records for this station are not official NWS values.
T = Trace of Precipitation, MM = Missing Value Source: NWS Daily Summary

Daily Weather History Graph

Daily Weather History Graph

Search for Another Location

Airport or City:

Trip Planner

Search our weather history database for the weather conditions in past years. The results will help you decide how hot, cold, wet, or windy it might be!

Date:

Astronomy

Dec. 17, 2012 Rise Set
Actual Time 7:15 AM EST 5:38 PM EST
Civil Twilight 6:49 AM EST 6:04 PM EST
Nautical Twilight 6:20 AM EST 6:33 PM EST
Astronomical Twilight 5:51 AM EST 7:02 PM EST
Moon 10:43 AM EST (12/17) 10:35 PM EST (12/17)
Length of Visible Light 11h 14m
Length of Day
10h 23m
Waxing Crescent, 24% of the Moon is Illuminated
Dec 17
Waxing Crescent
Dec 20
First Quarter
Dec 28
Full
Jan 4
Last Quarter
Jan 11
New

Hourly Weather History & Observations

Time (EST) Temp. Dew Point Humidity Pressure Visibility Wind Dir Wind Speed Gust Speed Precip Events Conditions
12:53 AM 70.0 °F 66.9 °F 90% 29.98 in 10.0 mi Calm Calm - N/A   Clear
1:53 AM 69.1 °F 66.0 °F 90% 29.96 in 10.0 mi South 4.6 mph - N/A   Clear
2:53 AM 68.0 °F 64.9 °F 90% 29.95 in 10.0 mi South 4.6 mph - N/A   Clear
4:53 AM 69.1 °F 64.9 °F 87% 29.92 in 10.0 mi South 8.1 mph - N/A   Clear
5:53 AM 68.0 °F 64.9 °F 90% 29.92 in 10.0 mi South 5.8 mph - N/A   Clear
6:53 AM 68.0 °F 64.0 °F 87% 29.94 in 10.0 mi South 4.6 mph - N/A   Clear
7:53 AM 69.1 °F 64.9 °F 87% 29.94 in 10.0 mi South 6.9 mph - N/A   Clear
8:53 AM 70.0 °F 66.0 °F 87% 29.95 in 10.0 mi SSW 8.1 mph - N/A   Clear
9:53 AM 73.0 °F 68.0 °F 84% 29.94 in 10.0 mi SSW 9.2 mph - N/A   Clear
10:53 AM 77.0 °F 68.0 °F 74% 29.94 in 10.0 mi North - - N/A   Unknown
11:53 AM 79.0 °F 68.0 °F 69% 29.92 in 10.0 mi SSW 15.0 mph - N/A   Clear
12:53 PM 78.1 °F 66.9 °F 68% 29.91 in 10.0 mi SW 15.0 mph 23.0 mph N/A   Unknown
1:53 PM 78.1 °F 66.9 °F 68% 29.89 in 10.0 mi SW 15.0 mph - N/A   Clear
2:53 PM 77.0 °F 66.9 °F 71% 29.89 in 10.0 mi WSW 12.7 mph - N/A   Clear
3:53 PM 77.0 °F 68.0 °F 74% 29.89 in 10.0 mi WSW 13.8 mph - N/A   Clear
4:53 PM 75.9 °F 69.1 °F 79% 29.90 in 10.0 mi WSW 8.1 mph - N/A   Mostly Cloudy
7:53 PM 73.0 °F 70.0 °F 90% 29.94 in 10.0 mi WSW 4.6 mph - N/A   Scattered Clouds
8:53 PM 72.0 °F 70.0 °F 93% 29.93 in 10.0 mi SW 3.5 mph - N/A   Clear
9:22 PM 71.1 °F 69.1 °F 93% 29.93 in 10.0 mi South 4.6 mph - N/A   Scattered Clouds
9:50 PM 71.6 °F 69.8 °F 94% 29.92 in 10.0 mi SSW 4.6 mph - N/A   Mostly Cloudy
9:53 PM 71.1 °F 70.0 °F 96% 29.93 in 10.0 mi SSW 4.6 mph - N/A   Mostly Cloudy
10:08 PM 71.1 °F 69.1 °F 93% 29.92 in 10.0 mi SW 3.5 mph - N/A   Scattered Clouds
10:53 PM 71.1 °F 70.0 °F 96% 29.91 in 10.0 mi SSW 8.1 mph - N/A   Clear
11:10 PM 71.1 °F 69.1 °F 93% 29.90 in 10.0 mi South 9.2 mph - N/A   Partly Cloudy
11:53 PM 71.1 °F 69.1 °F 93% 29.88 in 9.0 mi SSW 13.8 mph - N/A   Mostly Cloudy